Portada
METAR-TAF:

METAR-TAF

Aeropuertos :

Bandar Lengeh, Irán

latitud: 26-35N, longitud: 054-50E, altitud: 14 m

Observación

El informe se hizo hace 1 hora y 56 minutos, a las 00:00 UTC
Viento 8 kt del noreste
Temperatura 19°C
Humedad 88%
Presión 1014 hPa
Visibilidad: 5000 m
neblina

METAR: OIBL 250000Z 05008KT 5000 BR NSC 19/17 Q1014

Hora: 05:26 (01:56 UTC)


TAF: falta

Observaciones y pronósticos meteorológicos de más de 4000 aeropuertos (mensajes METAR y TAF).

Los puntos amarillos y rojos representan las estaciones disponibles.

Ponga el ratón en el punto deseado para ver el nombre de la estación.

Haga clic para ver las observaciones y los pronósticos meteorológicos.

Para cambiar el mapa : haga clic en los botones verdes con una cruz de color negro para hacer un zoom, en el botón verde con un guión para alejar o en las flechas verdes para mapas adyacentes.


METAR-TAF: